Location: Gleizolles
(44.4833°N, 6.7667°E)
Time: 01:02:20
(UTC+00:00)

Vanguard 2 Rocket - Pass Details

Date: 19 June 2024
Orbit: 555 x 3302 km, 32.9° (Epoch: 24 July)

Event Time Altitude Azimuth Distance (km) Brightness Sun altitude
Rises 03:30:38 0° 240° (WSW) 7,215 - -3.3°
Exits shadow 03:32:06 - 239° (WSW) 6,932 10.7 -3.1°
Reaches altitude 10° 03:35:39 10° 236° (SW) 6,251 10.5 -2.6°
Maximum altitude 03:54:23 51° 169° (S) 3,444 9.7 0.1°
Drops below altitude 10° 04:08:02 10° 99° (E) 4,694 11.4 2.2°
Sets 04:11:12 0° 95° (E) 5,376 11.9 2.6°
